WA7EBH-15 Weather Reports


time (UTC)temp
C
wind
direction
speed
KPH
gust
KPH
rain 1hr
cm
rain 24hr
cm
rain mn
cm
humidity
%
barometer
mb
20220627214240 25 274 11.3 9.7 0.00 0.00 0.00 57 1014.1
20220627213941 25 281 8.0 8.0 0.00 0.00 0.00 57 1014.2
20220627213044 25 248 4.8 9.7 0.00 0.00 0.00 58 1014.2
20220627212144 25 271 1.6 12.9 0.00 0.00 0.00 56 1014.2
20220627210947 24 336 8.0 6.4 0.00 0.00 0.00 56 1014.2
20220627210349 24 308 9.7 4.8 0.00 0.00 0.00 56 1014.3
20220627205751 24 335 9.7 8.0 0.00 0.00 0.00 57 1014.3
20220627205150 24 298 9.7 12.9 0.00 0.00 0.00 57 1014.4
20220627204253 24 325 11.3 9.7 0.00 0.00 0.00 58 1014.6
20220627203954 23 274 8.0 14.5 0.00 0.00 0.00 59 1014.6
20220627203656 24 350 9.7 9.7 0.00 0.00 0.00 59 1014.6
20220627203057 23 340 1.6 4.8 0.00 0.00 0.00 59 1014.7
20220627200702 23 281 9.7 6.4 0.00 0.00 0.00 60 1014.8
20220627200403 23 233 6.4 12.9 0.00 0.00 0.00 60 1014.8
20220627195805 23 257 9.7 12.9 0.00 0.00 0.00 62 1014.9
20220627195506 23 263 9.7 9.7 0.00 0.00 0.00 61 1014.9
20220627194605 23 330 12.9 11.3 0.00 0.00 0.00 61 1015.0
20220627191911 24 288 9.7 11.3 0.00 0.00 0.00 60 1015.0
20220627191612 24 307 12.9 11.3 0.00 0.00 0.00 60 1015.0
20220627190416 24 333 8.0 6.4 0.00 0.00 0.00 61 1015.0
20220627190117 24 321 9.7 11.3 0.00 0.00 0.00 59 1015.0
20220627185818 25 278 8.0 6.4 0.00 0.00 0.00 60 1015.0
20220627185519 24 333 6.4 8.0 0.00 0.00 0.00 58 1015.0
20220627185216 24 288 8.0 9.7 0.00 0.00 0.00 59 1015.0
20220627184618 24 295 1.6 4.8 0.00 0.00 0.00 59 1015.0
20220627184319 24 224 4.8 1.6 0.00 0.00 0.00 60 1015.0
20220627183422 23 255 0.0 1.6 0.00 0.00 0.00 60 1015.1
20220627182824 23 229 0.0 4.8 0.00 0.00 0.00 60 1015.1
20220627182525 23 24 0.0 0.0 0.00 0.00 0.00 59 1015.1
20220627182223 23 307 6.4 4.8 0.00 0.00 0.00 60 1015.2
20220627181625 23 246 4.8 3.2 0.00 0.00 0.00 61 1015.2
20220627180429 23 343 9.7 6.4 0.00 0.00 0.00 63 1015.3
20220627180130 23 319 8.0 6.4 0.00 0.00 0.00 63 1015.3
20220627175831 23 70 0.0 4.8 0.00 0.00 0.00 63 1015.3
20220627175230 23 325 11.3 8.0 0.00 0.00 0.00 64 1015.4
20220627174931 23 222 3.2 4.8 0.00 0.00 0.00 63 1015.4
20220627174034 22 318 3.2 6.4 0.00 0.00 0.00 64 1015.5
20220627173735 22 309 0.0 0.0 0.00 0.00 0.00 64 1015.5
20220627173436 22 281 6.4 1.6 0.00 0.00 0.00 65 1015.5
20220627173137 22 315 3.2 8.0 0.00 0.00 0.00 65 1015.5
20220627172838 22 357 6.4 4.8 0.00 0.00 0.00 64 1015.6
20220627172236 22 318 4.8 6.4 0.00 0.00 0.00 65 1015.4
20220627171938 22 270 0.0 1.6 0.00 0.00 0.00 65 1015.4
20220627171639 22 287 6.4 6.4 0.00 0.00 0.00 66 1015.5
20220627170442 22 298 3.2 3.2 0.00 0.00 0.00 67 1015.7
20220627170143 21 309 3.2 6.4 0.00 0.00 0.00 67 1015.7
20220627165844 21 288 8.0 6.4 0.00 0.00 0.00 67 1015.8
20220627165243 22 336 4.8 8.0 0.00 0.00 0.00 67 1015.8
20220627163748 21 277 8.0 6.4 0.00 0.00 0.00 64 1015.9
20220627163449 22 302 8.0 9.7 0.00 0.00 0.00 65 1016.0
20220627162851 22 271 8.0 8.0 0.00 0.00 0.00 65 1016.1
20220627162552 21 274 4.8 4.8 0.00 0.00 0.00 65 1016.1
20220627155857 22 302 9.7 6.4 0.00 0.00 0.00 62 1016.2
20220627154100 21 346 3.2 6.4 0.00 0.00 0.00 64 1016.2
20220627152606 21 246 3.2 3.2 0.00 0.00 0.00 65 1016.3
20220627151704 21 280 3.2 3.2 0.00 0.00 0.00 67 1016.4
20220627151107 21 329 1.6 1.6 0.00 0.00 0.00 67 1016.4
20220627150508 21 328 0.0 0.0 0.00 0.00 0.00 66 1016.4
20220627145611 21 328 0.0 0.0 0.00 0.00 0.00 66 1016.5
20220627144412 20 252 0.0 0.0 0.00 0.00 0.00 71 1016.5
20220627143814 20 89 0.0 0.0 0.00 0.00 0.00 77 1016.5
20220627142618 18 89 0.0 0.0 0.00 0.00 0.00 80 1016.5
20220627142316 18 108 0.0 0.0 0.00 0.00 0.00 81 1016.5
20220627141420 17 167 3.2 3.2 0.00 0.00 0.00 82 1016.4
20220627140821 16 205 3.2 3.2 0.00 0.00 0.00 81 1016.5
20220627140223 16 176 1.6 3.2 0.00 0.00 0.00 83 1016.5
20220627135322 15 148 4.8 4.8 0.00 0.00 0.00 86 1016.5
20220627133827 15 128 6.4 6.4 0.00 0.00 0.00 87 1016.5
20220627133528 15 134 3.2 3.2 0.00 0.00 0.00 86 1016.5
20220627132030 15 138 1.6 1.6 0.00 0.00 0.00 85 1016.5
20220627131731 15 105 4.8 3.2 0.00 0.00 0.00 85 1016.4
20220627131432 15 128 6.4 6.4 0.00 0.00 0.00 84 1016.5
20220627130834 15 118 6.4 6.4 0.00 0.00 0.00 83 1016.5
20220627130535 15 153 6.4 8.0 0.00 0.00 0.00 82 1016.5
20220627125937 15 138 6.4 4.8 0.00 0.00 0.00 82 1016.5
20220627125638 15 134 8.0 8.0 0.00 0.00 0.00 81 1016.6
20220627125335 15 181 6.4 6.4 0.00 0.00 0.00 81 1016.6
20220627124438 15 134 6.4 9.7 0.00 0.00 0.00 79 1016.5
20220627122943 14 148 8.0 8.0 0.00 0.00 0.00 81 1016.5
20220627122043 15 141 6.4 6.4 0.00 0.00 0.00 80 1016.5
20220627121744 15 145 6.4 11.3 0.00 0.00 0.00 79 1016.5
20220627115950 16 152 6.4 9.7 0.00 0.00 0.00 73 1016.5
20220627112657 16 122 4.8 8.0 0.00 0.00 0.00 75 1016.4
20220627112355 16 152 8.0 6.4 0.00 0.00 0.00 73 1016.4
20220627111458 16 115 9.7 8.0 0.00 0.00 0.00 71 1016.4
20220627110302 17 152 8.0 4.8 0.00 0.00 0.00 71 1016.5
20220627110003 17 160 6.4 4.8 0.00 0.00 0.00 70 1016.5
20220627105704 17 120 8.0 4.8 0.00 0.00 0.00 70 1016.5
20220627104804 17 103 6.4 4.8 0.00 0.00 0.00 71 1016.5
20220627104206 16 193 11.3 14.5 0.00 0.00 0.00 72 1016.5
20220627102711 17 129 6.4 14.5 0.00 0.00 0.00 71 1016.6
20220627102408 17 172 9.7 8.0 0.00 0.00 0.00 71 1016.6
20220627102110 17 152 8.0 11.3 0.00 0.00 0.00 72 1016.6
20220627101511 17 159 9.7 9.7 0.00 0.00 0.00 69 1016.6
20220627100913 17 122 8.0 8.0 0.00 0.00 0.00 70 1016.6
20220627100614 17 131 6.4 4.8 0.00 0.00 0.00 70 1016.6
20220627100315 17 129 8.0 6.4 0.00 0.00 0.00 70 1016.6
20220627095717 17 159 9.7 8.0 0.00 0.00 0.00 71 1016.5
20220627095415 17 128 8.0 8.0 0.00 0.00 0.00 71 1016.6
20220627094817 16 121 8.0 4.8 0.00 0.00 0.00 73 1016.5
20220627094518 16 149 9.7 6.4 0.00 0.00 0.00 73 1016.5
20220627094219 16 139 8.0 6.4 0.00 0.00 0.00 75 1016.5
20220627091524 15 143 6.4 6.4 0.00 0.00 0.00 80 1016.6
20220627090329 15 163 6.4 3.2 0.00 0.00 0.00 81 1016.6
20220627090029 15 169 8.0 8.0 0.00 0.00 0.00 80 1016.6
20220627085730 15 163 8.0 8.0 0.00 0.00 0.00 81 1016.6
20220627084830 15 173 6.4 6.4 0.00 0.00 0.00 82 1016.6
20220627084531 14 149 9.7 8.0 0.00 0.00 0.00 83 1016.5
20220627084232 14 138 8.0 11.3 0.00 0.00 0.00 84 1016.5
20220627083634 14 174 6.4 6.4 0.00 0.00 0.00 84 1016.5
20220627083335 14 139 6.4 8.0 0.00 0.00 0.00 84 1016.5
20220627082737 14 114 8.0 6.4 0.00 0.00 0.00 84 1016.5
20220627082136 14 117 8.0 8.0 0.00 0.00 0.00 83 1016.6
20220627081239 14 190 8.0 8.0 0.00 0.00 0.00 83 1016.5
20220627080940 14 163 8.0 8.0 0.00 0.00 0.00 83 1016.5
20220627075142 15 115 6.4 6.4 0.00 0.00 0.00 82 1016.5
20220627073647 16 143 6.4 6.4 0.00 0.00 0.00 77 1016.6
20220627073049 17 103 4.8 6.4 0.00 0.00 0.00 74 1016.5
20220627072750 17 100 4.8 3.2 0.00 0.00 0.00 73 1016.6
20220627071850 19 89 6.4 6.4 0.00 0.00 0.00 69 1016.6
20220627071252 19 132 9.7 6.4 0.00 0.00 0.00 68 1016.5
20220627070654 19 150 8.0 8.0 0.00 0.00 0.00 68 1016.6
20220627070355 20 110 8.0 3.2 0.00 0.00 0.00 68 1016.5
20220627070056 19 187 8.0 9.7 0.00 0.00 0.00 68 1016.6
20220627065454 20 94 4.8 9.7 0.00 0.00 0.00 67 1016.5
20220627064557 20 134 6.4 4.8 0.00 0.00 0.00 67 1016.6
20220627064258 20 127 8.0 11.3 0.00 0.00 0.00 67 1016.6
20220627063700 20 163 9.7 12.9 0.00 0.00 0.00 67 1016.6
20220627062501 20 134 8.0 6.4 0.00 0.00 0.00 67 1016.6
20220627062202 20 170 9.7 12.9 0.00 0.00 0.00 67 1016.6
20220627061305 20 141 9.7 8.0 0.00 0.00 0.00 67 1016.6
20220627060707 20 134 6.4 6.4 0.00 0.00 0.00 67 1016.6
20220627060408 20 152 9.7 6.4 0.00 0.00 0.00 67 1016.6
20220627060109 20 158 9.7 8.0 0.00 0.00 0.00 68 1016.7
20220627054910 20 142 8.0 8.0 0.00 0.00 0.00 67 1016.7
20220627054611 20 139 8.0 4.8 0.00 0.00 0.00 68 1016.7
20220627054013 20 127 9.7 8.0 0.00 0.00 0.00 68 1016.7
20220627052515 20 134 8.0 11.3 0.00 0.00 0.00 69 1016.8
20220627052215 20 125 9.7 12.9 0.00 0.00 0.00 69 1016.7
20220627051916 20 145 9.7 4.8 0.00 0.00 0.00 69 1016.8
20220627051618 20 136 9.7 6.4 0.00 0.00 0.00 69 1016.8
20220627050720 -17 116 0.0 0.0 0.00 0.00 0.00
20220627045222 20 159 4.8 6.4 0.00 0.00 0.00 70 1016.7
20220627044624 21 163 4.8 3.2 0.00 0.00 0.00 68 1016.7
20220627044325 21 125 4.8 6.4 0.00 0.00 0.00 68 1016.7
20220627042228 22 103 4.8 4.8 0.00 0.00 0.00 65 1016.6
20220627041929 22 122 4.8 4.8 0.00 0.00 0.00 63 1016.5
20220627041630 22 163 4.8 8.0 0.00 0.00 0.00 63 1016.5
20220627041331 22 128 6.4 4.8 0.00 0.00 0.00 63 1016.5
20220627035836 22 132 4.8 1.6 0.00 0.00 0.00 62 1016.5
20220627035534 23 132 6.4 3.2 0.00 0.00 0.00 61 1016.6
20220627034637 23 127 4.8 6.4 0.00 0.00 0.00 61 1016.5
20220627033740 24 132 3.2 4.8 0.00 0.00 0.00 59 1016.5
20220627032541 25 276 0.0 0.0 0.00 0.00 0.00 57 1016.6
20220627032243 25 276 0.0 0.0 0.00 0.00 0.00 56 1016.6
20220627031943 26 276 0.0 0.0 0.00 0.00 0.00 55 1016.6
20220627031644 26 276 0.0 0.0 0.00 0.00 0.00 55 1016.6
20220627031345 26 276 0.0 0.0 0.00 0.00 0.00 54 1016.6
20220627031046 26 276 0.0 0.0 0.00 0.00 0.00 53 1016.6
20220627030747 26 276 0.0 0.0 0.00 0.00 0.00 53 1016.6
20220627030149 26 276 0.0 0.0 0.00 0.00 0.00 51 1016.6
20220627025850 26 276 0.0 0.0 0.00 0.00 0.00 51 1016.6
20220627024052 26 293 3.2 3.2 0.00 0.00 0.00 51 1016.7
20220627023454 26 278 4.8 3.2 0.00 0.00 0.00 50 1016.7
20220627023155 26 287 3.2 1.6 0.00 0.00 0.00 50 1016.7
20220627022856 26 271 4.8 3.2 0.00 0.00 0.00 48 1016.7
20220627022554 26 280 3.2 3.2 0.00 0.00 0.00 49 1016.7
20220627022255 26 297 4.8 1.6 0.00 0.00 0.00 49 1016.7
20220627021657 26 290 4.8 3.2 0.00 0.00 0.00 48 1016.8
20220627021358 27 294 4.8 4.8 0.00 0.00 0.00 46 1016.8
20220627021059 26 259 4.8 3.2 0.00 0.00 0.00 43 1016.8
20220627020202 26 276 4.8 4.8 0.00 0.00 0.00 43 1016.9
20220627015903 26 329 6.4 4.8 0.00 0.00 0.00 42 1016.9
20220627015600 26 291 4.8 3.2 0.00 0.00 0.00 42 1016.9
20220627015301 26 314 6.4 6.4 0.00 0.00 0.00 43 1016.9
20220627015003 26 322 3.2 3.2 0.00 0.00 0.00 44 1016.9
20220627014704 26 277 4.8 3.2 0.00 0.00 0.00 43 1017.0
20220627014405 26 273 4.8 4.8 0.00 0.00 0.00 44 1017.0
20220627014106 26 323 4.8 4.8 0.00 0.00 0.00 43 1017.0
20220627013209 26 339 6.4 4.8 0.00 0.00 0.00 43 1017.0
20220627012909 26 340 3.2 1.6 0.00 0.00 0.00 44 1017.0
20220627012607 26 322 4.8 6.4 0.00 0.00 0.00 44 1017.0
20220627012308 26 125 1.6 0.0 0.00 0.00 0.00 43 1017.1
20220627011710 26 321 4.8 6.4 0.00 0.00 0.00 45 1017.1
20220627010514 26 311 6.4 6.4 0.00 0.00 0.00 45 1017.2
20220627010215 26 312 9.7 8.0 0.00 0.00 0.00 46 1017.2
20220627005917 26 274 6.4 11.3 0.00 0.00 0.00 46 1017.2
20220627005616 26 257 6.4 8.0 0.00 0.00 0.00 48 1017.2
20220627005315 26 321 9.7 9.7 0.00 0.00 0.00 46 1017.3
20220627005016 26 311 6.4 6.4 0.00 0.00 0.00 47 1017.3
20220627004717 26 321 9.7 8.0 0.00 0.00 0.00 48 1017.4
20220627004418 26 359 3.2 4.8 0.00 0.00 0.00 48 1017.4
20220627003521 26 308 8.0 12.9 0.00 0.00 0.00 49 1017.4
20220627001125 26 332 9.7 11.3 0.00 0.00 0.00 48 1017.6
20220627000228 26 325 8.0 9.7 0.00 0.00 0.00 47 1017.7
20220626235929 26 359 8.0 4.8 0.00 0.00 0.00 48 1017.7
20220626235627 26 325 8.0 12.9 0.00 0.00 0.00 50 1017.7
20220626235029 26 308 4.8 8.0 0.00 0.00 0.00 52 1017.8
20220626234132 26 349 8.0 11.3 0.00 0.00 0.00 48 1017.8
20220626233833 26 319 11.3 12.9 0.00 0.00 0.00 47 1017.8
20220626233235 26 352 12.9 4.8 0.00 0.00 0.00 48 1017.9
20220626232936 26 291 9.7 6.4 0.00 0.00 0.00 48 1017.9
20220626225341 26 301 11.3 9.7 0.00 0.00 0.00 52 1018.3
20220626222647 26 315 9.7 9.7 0.00 0.00 0.00 50 1018.5
20220626222348 26 7 1.6 9.7 0.00 0.00 0.00 49 1018.5
20220626221451 26 319 8.0 17.7 0.00 0.00 0.00 49 1018.5
20220626220853 25 323 9.7 12.9 0.00 0.00 0.00 50 1018.6
20220626220554 26 291 12.9 8.0 0.00 0.00 0.00 50 1018.6
20220626220255 25 311 4.8 6.4 0.00 0.00 0.00 50 1018.7
20220626215355 25 10 6.4 6.4 0.00 0.00 0.00 49 1018.7